Home   Weather   Ottawa   Past weeks

Flag for Canada Past Weather in Ottawa, Ontario, Canada — Yesterday and Last 2 Weeks

Now
34 °F

Low clouds.


Feels Like: 24 °F
Forecast: 30 / 47 °F
Wind: 15 mph from East

Location: Ottawa Int'L. Ont.

Current Time: Feb 25, 2017 at 2:00:32 am

Latest Report: Feb 25, 2017 at 1:00 am


Visibility: 10 mi

Pressure: 29.69 "Hg

Humidity: 93%

Dew Point: 32 °F

Location of OttawaLocation

Past Weather in Ottawa — Graph

°F

Ottawa Temperature Yesterday

Maximum temperature yesterday: 37 °F (at 12:00 am)
Minimum temperature yesterday: 32 °F (at 4:00 am)
Average temperature yesterday: 35 °F

High & Low Weather Summary for the Past Weeks

 TemperatureHumidityPressure
High52 °F (Feb 23, 2:00 pm)100% (Feb 15, 6:00 pm)30.43 "Hg (Feb 15, 6:00 pm)
Low0 °F (Feb 10, 8:00 am)33% (Feb 10, 4:00 pm)29.38 "Hg (Feb 18, 4:00 pm)
Average25 °F80%29.85 "Hg
* Reported Feb 10 1:00 am — Feb 25 1:00 am, Ottawa, Weather by CustomWeather, © 2017

Note: Actual official high and low records may vary slightly from our data, if they occured in-between our weather recording intervals... More about our weather records

Advertising

Ottawa Weather History for the Previous 24 Hours

Scroll right to see more
 ConditionsComfort  
Time TempWeatherWind HumidityBarometerVisibility
1:00 am
Sat, Feb 25
34 °FLow clouds.15 mph93%29.69 "Hg10 mi
12:00 am34 °FLow clouds.12 mph93%29.71 "Hg10 mi
11:06 pm
Fri, Feb 24
34 °FLow clouds.13 mph93%29.74 "Hg10 mi
10:33 pm34 °FMostly cloudy.16 mph93%29.73 "Hg10 mi
10:00 pm34 °FOvercast.15 mph93%29.74 "Hg10 mi
9:27 pm34 °FLight rain. Overcast.16 mph93%29.77 "Hg10 mi
9:00 pm34 °FOvercast.17 mph93%29.77 "Hg10 mi
8:00 pm34 °FLow clouds.14 mph100%29.80 "Hg7 mi
7:00 pm34 °FFog.13 mph100%29.81 "Hg6 mi
6:41 pm36 °FFog.12 mph93%29.79 "Hg6 mi
6:00 pm36 °FDrizzle. Fog.14 mph93%29.79 "Hg3 mi
5:00 pm36 °FLight rain. Fog.8 mph93%29.81 "Hg3 mi
4:00 pm36 °FLight rain. Fog.7 mph93%29.82 "Hg3 mi
3:27 pm36 °FLight rain. Fog.9 mph93%29.81 "Hg3 mi
3:00 pm36 °FLight rain. Overcast.7 mph93%29.84 "Hg10 mi
2:00 pm36 °FLight rain. Fog.10 mph87%29.82 "Hg6 mi
1:35 pm36 °FOvercast.8 mph87%29.85 "Hg10 mi
1:00 pm36 °FLight rain. Overcast.10 mph87%29.84 "Hg15 mi
12:16 pm36 °FLight rain. Mostly cloudy.8 mph81%29.88 "Hg15 mi
11:00 am36 °FOvercast.12 mph75%29.89 "Hg15 mi
10:17 am36 °FPartly sunny.10 mph81%29.92 "Hg15 mi
9:49 am36 °FLight rain. Partly sunny.12 mph81%29.91 "Hg15 mi
9:00 am36 °FScattered clouds.8 mph81%29.95 "Hg15 mi
8:00 am34 °FScattered clouds.8 mph87%29.94 "Hg15 mi
7:00 am32 °FPartly sunny.5 mph93%29.94 "Hg20 mi
6:00 am34 °FPassing clouds.2 mph87%29.94 "Hg15 mi
5:00 am34 °FPartly cloudy.6 mph87%29.95 "Hg15 mi
4:32 am36 °FOvercast.6 mph87%29.94 "Hg15 mi
4:00 am32 °FPartly cloudy.3 mph93%29.95 "Hg15 mi
3:00 am34 °FPassing clouds.2 mph93%29.93 "Hg15 mi
2:00 am34 °FPassing clouds.3 mph93%29.93 "Hg15 mi
Weather by CustomWeather, © 2017

See weather overviewHow to use our weather pages